Temp
22 22 22 21 20 22 21 22 24 23 22 23 23 23 20 21 20 16 18 18 17 16 17 17 16 16 16 16 16 16 16 16 16 16 16 15 15 15 14 14 14 14 14 14 14 15 15 15 15
22 22 22 23 21 21 21 23 22 21 23 23 23 23 22 19 20 18 17 17 17 16 16 16 16 16 16 16 16 16 16 16 16 16 16 15 15 15 14 14 14 13 14 15 15 14 15 15 15
22 22 22 21 22 21 21 23 21 22 23 23 23 23 21 19 19 17 17 16 16 15 15 15 16 15 15 16 15 15 15 15 15 15 15 15 15 15 15 14 14 14 14 15 15 14 15 15 15
21 22 23 21 21 23 23 22 23 23 23 22 23 19 18 17 18 17 17 16 16 15 15 15 15 15 15 15 15 16 16 15 15 15 15 15 14 14 14 14 14 14 14 14 15 15 14 15 15
22 23 21 23 22 23 22 24 24 23 24 23 23 19 18 16 16 16 17 16 15 16 15 16 16 15 15 15 15 15 15 15 15 15 15 14 14 14 14 13 13 13 13 13 14 14 14 15 15
22 24 21 21 22 23 23 23 24 24 24 23 23 20 17 16 16 17 16 16 15 16 15 16 16 16 15 14 14 14 14 14 14 14 14 14 14 14 14 14 14 13 13 13 13 13 14 14 15
22 21 20 23 21 22 22 23 23 24 23 22 22 20 17 17 17 17 18 18 18 17 16 15 15 15 15 15 14 14 14 14 14 14 14 14 14 14 13 13 13 12 12 12 13 13 13 14 14
21 22 23 24 21 22 22 23 22 23 20 21 21 20 17 18 18 17 17 18 17 17 17 17 17 16 16 14 14 14 14 15 14 14 14 14 14 14 13 13 12 12 11 11 12 12 12 12 13
20 19 20 24 24 22 22 22 22 21 21 20 19 19 18 18 17 17 16 16 16 17 17 17 16 17 16 16 14 15 14 14 14 14 14 14 14 13 12 12 12 11 11 11 11 10 11 12 12
21 19 21 22 22 22 22 23 21 21 22 19 18 17 17 17 16 15 15 15 16 16 17 17 16 16 16 15 15 13 13 14 14 14 14 14 13 13 12 12 12 12 11 11 11 10 10 10 11
22 20 22 21 21 21 22 21 21 21 21 21 20 17 16 16 15 15 15 15 16 16 16 17 17 16 16 16 15 13 13 13 13 13 13 13 13 13 12 12 13 13 12 12 11 11 11 10 10
19 21 21 20 19 20 21 21 21 21 19 18 18 17 16 15 15 15 16 16 16 16 16 16 16 16 16 16 15 13 12 12 12 13 13 13 12 12 12 12 12 13 12 12 12 12 11 11 11
20 21 20 19 18 19 19 19 20 20 19 18 18 16 15 15 15 15 15 16 16 16 16 16 17 16 16 15 13 12 12 13 13 12 12 13 13 12 12 12 12 12 11 11 11 11 12 11 11
19 19 20 19 19 18 18 19 20 20 18 18 16 15 15 15 15 15 15 16 15 16 16 16 16 16 17 15 15 12 11 11 12 12 12 12 12 12 12 12 12 11 11 10 10 11 10 10 11
18 18 18 19 19 19 18 16 17 19 17 16 15 14 14 14 15 16 15 15 15 15 15 16 16 16 15 14 13 11 11 11 11 11 12 13 12 12 12 11 11 11 11 10 10 10 10 10 10
18 19 18 18 19 17 17 17 18 19 17 15 15 13 13 13 15 15 15 15 15 15 15 16 15 15 13 11 11 10 10 11 10 10 11 11 11 11 11 11 11 11 10 10 10 10 10 10 9
18 17 18 17 18 16 15 17 17 16 16 16 15 14 13 13 13 14 14 14 14 14 14 14 13 12 10 10 10 10 10 10 10 10 11 11 11 11 11 11 10 10 10 10 10 10 10 9 9
18 17 18 19 17 17 15 14 16 16 16 17 16 15 13 12 12 13 13 13 12 12 13 12 10 8 9 9 9 10 10 10 10 10 10 10 10 10 10 10 10 10 10 10 9 9 9 9 9
18 18 17 19 17 17 16 16 17 17 16 17 17 16 14 12 11 11 12 11 11 11 10 8 8 9 9 9 9 9 10 9 10 10 10 10 10 10 9 9 9 10 9 9 9 9 8 8 9
17 17 16 18 16 16 15 15 17 18 16 17 17 17 14 12 11 10 10 11 10 10 7 7 8 8 8 9 9 9 9 9 9 9 9 9 9 9 9 9 9 9 9 8 8 8 8 8 8
16 16 16 17 16 15 14 13 15 16 19 17 17 18 16 13 11 9 8 9 10 10 7 7 7 7 8 8 8 9 9 9 9 9 10 9 9 9 9 9 9 8 8 8 7 7 7 7 6
15 17 16 16 15 13 14 12 16 17 16 17 17 17 15 11 10 9 8 8 9 8 6 7 7 7 7 8 8 9 9 9 9 9 9 9 9 8 8 8 8 7 7 7 6 6 5 5 5
16 15 16 16 13 13 14 12 14 16 16 15 12 14 13 11 9 8 8 8 9 8 8 6 6 7 7 8 8 9 9 9 9 9 9 8 8 8 7 7 6 6 5 5 5 4 4 3 3
13 14 14 14 12 9 12 13 13 16 17 16 12 13 12 10 8 8 6 7 8 8 7 7 7 8 8 8 8 9 9 9 9 8 8 7 7 7 6 6 5 5 4 4 3 3 2 2 1
14 13 11 10 8 9 13 12 14 15 16 15 12 11 11 9 7 6 6 7 8 8 8 8 8 8 8 9 9 9 9 8 8 8 7 7 6 6 5 5 4 4 3 3 2 2 1 1 1
11 13 10 11 10 10 9 10 13 11 11 13 12 11 10 8 7 6 7 8 8 8 8 8 8 8 9 9 8 8 8 8 8 7 7 6 5 5 4 4 3 3 2 2 1 1 1 0 0
11 11 14 11 5 7 11 12 15 9 8 9 10 9 8 7 6 6 7 8 8 8 8 8 8 8 8 8 8 8 8 7 7 6 6 5 4 4 3 3 2 2 1 1 1 0 -0 -0 -1
12 12 9 9 8 8 12 13 14 9 9 7 8 8 7 7 6 6 7 7 8 8 8 8 8 8 8 7 7 7 7 6 6 5 5 4 3 3 2 2 1 1 1 0 -0 -1 -1 -2 -2
10 10 12 12 10 9 10 12 16 13 11 8 8 8 7 6 6 6 6 7 8 7 7 8 7 7 7 7 7 6 6 5 5 4 4 3 2 2 1 1 0 0 -0 -1 -1 -2 -2 -2 -3
13 11 11 10 10 11 8 14 14 14 11 10 9 8 7 7 6 6 7 7 7 7 7 7 7 7 6 6 6 6 5 5 4 4 3 2 2 1 1 -0 -0 -1 -1 -1 -2 -2 -3 -3 -3
Height
1528 1527 1527 1527 1535 1527 1540 1541 1532 1537 1540 1542 1542 1541 1547 1546 1549 1567 1562 1561 1562 1561 1563 1565 1567 1568 1570 1572 1574 1575 1577 1577 1578 1579 1579 1580 1581 1581 1581 1581 1580 1580 1579 1579 1578 1579 1578 1578 1578
1528 1528 1528 1527 1536 1542 1546 1533 1539 1539 1542 1543 1543 1545 1545 1553 1555 1559 1561 1562 1562 1563 1564 1566 1568 1570 1572 1573 1575 1576 1577 1578 1579 1580 1580 1581 1582 1582 1582 1583 1582 1581 1581 1580 1579 1580 1580 1580 1580
1529 1529 1531 1526 1528 1542 1545 1533 1539 1542 1543 1543 1544 1545 1548 1558 1558 1560 1562 1563 1563 1565 1565 1567 1569 1571 1572 1574 1576 1577 1579 1580 1581 1581 1581 1582 1582 1583 1583 1582 1583 1582 1582 1581 1581 1581 1581 1581 1581
1530 1532 1531 1534 1537 1533 1533 1534 1538 1541 1544 1544 1544 1550 1556 1560 1560 1561 1562 1563 1564 1566 1567 1568 1570 1572 1573 1575 1577 1578 1580 1581 1582 1583 1584 1583 1584 1584 1584 1584 1585 1584 1584 1583 1583 1582 1582 1582 1582
1532 1531 1533 1531 1537 1534 1533 1535 1538 1540 1542 1545 1545 1553 1558 1561 1561 1562 1562 1564 1564 1565 1566 1568 1570 1572 1573 1575 1577 1579 1580 1582 1583 1584 1584 1585 1586 1586 1586 1586 1586 1586 1586 1585 1585 1584 1583 1583 1583
1533 1531 1537 1541 1536 1535 1536 1538 1540 1540 1543 1546 1546 1549 1560 1561 1561 1561 1562 1563 1564 1565 1566 1567 1570 1571 1573 1575 1577 1579 1581 1582 1583 1584 1584 1585 1586 1587 1587 1587 1587 1587 1587 1587 1586 1585 1585 1584 1584
1535 1534 1538 1529 1537 1539 1538 1540 1540 1541 1543 1547 1548 1550 1558 1559 1559 1560 1561 1562 1563 1563 1564 1566 1568 1571 1572 1574 1576 1578 1580 1581 1583 1584 1585 1586 1586 1587 1587 1587 1588 1588 1588 1588 1588 1587 1586 1585 1585
1536 1534 1533 1529 1537 1539 1537 1540 1541 1542 1546 1548 1549 1551 1556 1557 1559 1560 1560 1562 1563 1564 1565 1566 1567 1568 1570 1572 1574 1576 1578 1580 1581 1583 1584 1585 1586 1586 1587 1588 1588 1589 1588 1588 1588 1587 1586 1586 1586
1537 1541 1541 1531 1531 1535 1537 1540 1543 1544 1546 1548 1550 1551 1553 1556 1557 1559 1560 1561 1561 1562 1563 1564 1565 1566 1568 1570 1571 1574 1576 1578 1580 1582 1583 1584 1585 1585 1585 1587 1589 1590 1591 1591 1590 1588 1587 1587 1586
1537 1539 1536 1530 1530 1533 1537 1539 1542 1545 1545 1548 1549 1551 1552 1554 1556 1558 1560 1559 1559 1560 1561 1562 1563 1565 1566 1567 1570 1573 1575 1578 1580 1582 1583 1583 1584 1584 1585 1587 1588 1589 1590 1590 1590 1590 1589 1588 1588
1536 1539 1534 1534 1535 1535 1538 1540 1541 1543 1544 1545 1545 1549 1552 1553 1554 1555 1556 1557 1557 1558 1559 1560 1561 1563 1564 1566 1568 1570 1572 1576 1578 1579 1580 1581 1583 1584 1585 1586 1587 1588 1589 1590 1591 1590 1590 1590 1589
1541 1536 1536 1537 1538 1539 1540 1541 1542 1543 1544 1545 1545 1547 1550 1552 1552 1554 1554 1555 1556 1556 1556 1557 1558 1560 1563 1565 1567 1569 1572 1574 1574 1578 1579 1580 1581 1584 1585 1586 1586 1587 1588 1589 1589 1590 1590 1590 1590
1538 1537 1538 1539 1540 1540 1540 1541 1542 1541 1541 1543 1545 1547 1548 1550 1551 1552 1552 1553 1553 1554 1554 1555 1556 1557 1558 1560 1562 1565 1568 1571 1572 1575 1577 1579 1580 1581 1582 1583 1584 1585 1585 1586 1586 1588 1589 1589 1589
1539 1538 1538 1538 1539 1540 1541 1540 1540 1538 1538 1541 1544 1545 1546 1548 1549 1549 1550 1550 1551 1551 1552 1553 1554 1555 1555 1556 1558 1560 1564 1567 1570 1572 1574 1576 1578 1579 1581 1583 1584 1584 1584 1584 1585 1586 1586 1587 1587
1539 1540 1536 1536 1538 1540 1540 1541 1535 1536 1536 1539 1543 1544 1544 1545 1546 1547 1547 1548 1548 1549 1550 1551 1551 1552 1553 1555 1557 1561 1564 1566 1568 1569 1571 1572 1575 1576 1578 1579 1580 1581 1582 1584 1584 1585 1585 1584 1585
1539 1538 1542 1531 1533 1539 1542 1541 1528 1530 1534 1538 1541 1542 1542 1542 1543 1544 1545 1546 1547 1547 1548 1548 1548 1550 1552 1554 1556 1559 1562 1565 1567 1568 1569 1570 1572 1574 1576 1577 1578 1579 1579 1580 1580 1582 1583 1582 1583
1537 1545 1538 1536 1533 1537 1542 1536 1531 1532 1534 1536 1538 1540 1540 1540 1541 1542 1543 1544 1545 1545 1546 1546 1547 1548 1550 1554 1556 1559 1562 1565 1566 1568 1569 1570 1571 1572 1573 1575 1576 1577 1578 1578 1579 1579 1579 1580 1580
1538 1541 1533 1532 1534 1534 1539 1537 1531 1530 1531 1532 1534 1536 1537 1537 1539 1540 1541 1542 1542 1543 1543 1544 1546 1549 1552 1556 1558 1560 1562 1564 1566 1567 1568 1570 1571 1572 1573 1574 1575 1575 1576 1576 1576 1576 1577 1577 1576
1528 1532 1535 1526 1529 1531 1532 1529 1525 1524 1526 1527 1528 1530 1531 1535 1535 1536 1537 1539 1540 1542 1543 1544 1547 1549 1552 1555 1558 1561 1562 1563 1565 1567 1568 1570 1571 1571 1573 1573 1574 1574 1575 1576 1576 1576 1576 1577 1576
1528 1533 1536 1527 1529 1530 1529 1526 1520 1518 1517 1516 1518 1521 1524 1528 1531 1533 1534 1536 1537 1540 1543 1545 1547 1549 1551 1554 1557 1560 1562 1562 1565 1566 1568 1570 1571 1572 1572 1573 1573 1573 1575 1576 1576 1576 1575 1575 1576
1528 1532 1532 1532 1529 1530 1532 1528 1517 1507 1506 1508 1511 1515 1517 1518 1524 1529 1532 1533 1534 1536 1540 1544 1547 1549 1551 1554 1557 1559 1561 1562 1563 1563 1566 1568 1571 1572 1573 1575 1575 1574 1575 1576 1577 1577 1576 1574 1574
1532 1522 1525 1528 1536 1546 1530 1541 1511 1501 1499 1499 1502 1506 1509 1513 1519 1523 1527 1530 1532 1534 1537 1540 1543 1546 1550 1553 1555 1557 1559 1560 1561 1561 1564 1566 1568 1571 1573 1575 1575 1575 1575 1576 1575 1576 1576 1576 1573
1523 1522 1524 1527 1534 1537 1534 1541 1506 1494 1496 1490 1493 1498 1503 1507 1511 1516 1521 1525 1527 1531 1534 1538 1540 1543 1546 1549 1552 1556 1558 1560 1560 1562 1565 1567 1567 1568 1571 1573 1575 1574 1575 1575 1575 1575 1576 1574 1575
1520 1526 1528 1531 1536 1549 1530 1529 1504 1491 1483 1481 1486 1491 1497 1502 1507 1513 1517 1520 1523 1526 1530 1535 1538 1541 1544 1547 1551 1555 1558 1559 1560 1562 1563 1566 1569 1570 1568 1569 1572 1572 1573 1575 1574 1575 1575 1574 1574
1520 1528 1544 1552 1556 1542 1513 1521 1493 1481 1477 1476 1480 1487 1494 1498 1503 1507 1511 1514 1519 1523 1527 1531 1534 1537 1540 1544 1548 1552 1555 1558 1560 1563 1562 1564 1567 1568 1569 1569 1570 1570 1571 1573 1575 1573 1573 1573 1574
1522 1520 1539 1540 1539 1529 1522 1516 1490 1479 1477 1477 1479 1484 1490 1495 1500 1503 1507 1511 1515 1518 1523 1527 1530 1533 1537 1541 1545 1548 1551 1554 1557 1560 1562 1563 1566 1568 1567 1567 1568 1569 1569 1571 1572 1573 1573 1572 1572
1517 1523 1509 1525 1546 1541 1509 1493 1475 1477 1479 1479 1480 1482 1487 1491 1495 1498 1502 1507 1511 1515 1519 1523 1527 1531 1535 1539 1542 1545 1548 1551 1555 1557 1561 1562 1564 1566 1565 1566 1565 1568 1568 1569 1571 1570 1571 1570 1570
1500 1502 1527 1529 1543 1535 1496 1485 1476 1478 1474 1478 1477 1476 1481 1487 1491 1495 1498 1502 1508 1513 1518 1521 1524 1528 1532 1536 1540 1543 1545 1549 1551 1553 1556 1559 1561 1563 1563 1563 1563 1565 1566 1567 1569 1570 1570 1570 1568
1504 1505 1504 1506 1514 1520 1510 1476 1444 1452 1456 1464 1469 1471 1475 1479 1484 1490 1495 1501 1506 1511 1514 1517 1520 1523 1527 1531 1536 1539 1542 1545 1547 1549 1551 1556 1558 1560 1560 1561 1561 1562 1563 1564 1565 1566 1565 1566 1565
1482 1490 1493 1506 1507 1495 1500 1447 1446 1447 1448 1454 1460 1466 1471 1476 1480 1484 1489 1494 1499 1504 1508 1511 1514 1519 1523 1527 1531 1535 1538 1541 1542 1545 1548 1551 1554 1556 1558 1559 1558 1559 1560 1561 1561 1562 1561 1561 1559
Wind_Speed
2 1 2 5 2 3 5 3 6 5 7 11 7 14 11 22 7 6 7 2 10 8 8 11 10 11 11 11 10 8 7 7 8 8 8 8 8 8 8 10 11 12 13 11 9 8 8 8 8
1 3 4 5 2 5 4 6 9 8 10 7 5 8 21 10 17 14 6 2 9 8 6 10 10 10 10 10 10 8 7 6 6 6 7 7 7 7 6 8 7 10 12 12 8 6 6 6 6
3 3 4 2 2 5 5 6 9 10 5 1 4 10 9 6 11 6 6 7 9 11 3 6 8 9 8 8 7 6 4 5 5 5 5 6 5 5 6 5 6 9 11 14 13 6 6 6 6
3 2 5 1 8 7 9 8 14 11 8 3 5 11 9 6 4 6 7 11 4 12 9 8 8 8 8 7 7 5 3 3 3 4 4 5 5 5 6 3 6 8 11 12 11 8 7 7 7
7 4 3 0 7 4 8 11 2 5 5 8 3 9 9 8 11 9 8 11 6 10 9 9 10 10 9 8 6 5 4 3 1 2 3 4 4 4 4 3 6 8 10 11 12 10 9 8 8
4 3 3 4 6 4 7 7 4 6 9 5 3 11 5 10 7 9 8 11 7 7 10 8 11 11 10 8 6 4 3 3 1 1 2 1 1 2 4 5 6 7 8 9 11 12 11 10 9
3 2 6 6 8 5 6 6 4 6 7 8 3 5 10 7 8 7 6 6 5 8 10 6 10 12 12 11 10 8 7 5 5 3 2 1 2 2 4 4 4 6 8 8 9 11 12 12 10
4 2 4 3 6 4 9 6 5 3 6 5 1 3 7 6 7 6 4 3 3 5 6 8 9 11 15 15 14 13 13 10 9 7 5 5 4 5 5 4 4 8 9 13 11 12 11 11 10
1 2 3 1 1 5 12 6 3 2 5 5 2 2 8 8 7 6 3 3 5 7 8 9 10 11 11 14 15 16 16 14 12 9 8 8 7 5 6 1 6 10 8 8 10 13 11 10 9
2 2 6 8 9 4 10 7 12 4 8 6 4 4 5 6 8 8 11 10 7 6 8 10 11 12 11 12 14 12 11 13 11 11 11 8 6 6 4 2 6 9 10 11 9 10 12 14 12
1 2 4 7 9 10 9 2 3 4 4 4 13 10 7 7 9 9 8 8 7 7 8 9 10 12 13 13 11 8 10 11 9 9 8 8 8 7 6 6 9 12 12 10 9 10 11 13 15
4 2 5 4 2 3 3 1 2 8 3 6 13 9 9 8 7 6 5 5 6 7 8 7 7 6 7 10 11 8 8 11 14 11 11 7 6 6 5 5 5 11 10 10 9 11 11 10 10
4 4 1 2 1 2 3 4 6 6 9 8 10 10 11 9 5 5 5 5 6 8 9 8 8 7 6 9 11 12 12 13 14 14 9 9 6 6 4 4 6 8 8 9 10 9 10 12 12
5 3 5 5 5 4 2 6 6 6 16 11 10 11 11 9 7 6 6 5 5 7 6 6 7 9 12 13 14 14 16 13 11 10 10 9 8 8 7 8 11 11 11 9 9 11 9 9 10
2 4 7 13 10 2 4 7 10 13 14 12 12 12 11 10 9 8 6 4 4 4 4 4 6 9 11 13 15 14 14 15 12 11 9 9 8 8 5 7 8 10 11 9 10 11 10 11 11
3 3 3 4 15 5 5 7 9 19 17 15 15 13 13 11 10 8 5 5 5 4 5 5 6 7 10 13 14 16 16 13 11 8 7 9 6 5 3 4 6 6 6 5 4 4 7 8 9
5 5 7 4 13 6 7 5 5 9 13 15 17 16 14 12 11 8 7 7 7 6 7 6 6 8 12 16 17 17 15 13 12 9 8 8 8 6 6 4 1 1 1 1 3 4 6 7 7
5 5 6 5 7 5 7 11 6 14 17 19 20 20 18 15 13 10 9 8 9 8 7 7 10 12 16 15 16 16 15 13 12 10 11 9 8 6 4 2 3 1 3 3 3 4 4 6 7
9 6 8 6 4 4 9 9 11 22 21 20 24 25 22 18 17 12 12 11 11 10 9 11 14 16 16 17 16 16 15 14 12 14 10 8 6 6 5 4 4 4 4 4 4 6 6 6 9
9 7 9 7 8 2 7 12 10 10 23 32 31 28 27 23 18 14 13 13 13 11 12 14 17 19 20 19 17 16 16 16 15 13 11 11 10 10 8 7 7 7 8 8 8 8 10 12 13
6 7 7 7 4 4 5 8 13 13 28 30 31 29 29 29 22 17 15 15 15 16 17 18 19 19 19 17 17 16 17 17 16 16 16 15 12 11 9 8 7 7 7 8 9 10 11 12 12
7 4 11 5 3 4 7 6 8 8 12 17 26 27 25 25 20 19 18 18 19 20 21 22 23 20 18 16 16 17 17 19 20 19 18 16 13 9 7 6 6 6 7 7 8 9 10 10 10
4 6 3 2 5 4 4 6 7 15 16 12 19 25 23 25 25 23 21 20 21 21 23 24 23 22 21 21 20 18 19 20 20 18 15 13 11 8 5 4 4 6 6 8 9 9 11 12 12
9 5 2 1 1 5 13 12 6 12 15 7 18 27 28 27 26 24 23 24 24 26 26 24 24 23 23 21 19 18 19 19 18 16 14 11 7 5 4 3 3 6 7 9 10 12 13 13 13
4 6 2 2 1 7 2 9 15 5 2 3 17 27 30 31 29 28 29 27 26 27 28 28 27 27 25 23 22 22 20 17 14 13 11 9 6 4 3 2 3 5 7 9 10 12 13 14 15
10 8 5 6 4 4 4 7 6 3 9 6 23 29 30 31 31 31 29 29 30 31 30 30 30 29 27 26 24 23 20 17 15 12 11 8 6 5 3 1 2 5 6 8 10 12 13 15 16
5 7 9 3 2 1 6 7 6 5 4 3 21 29 31 33 34 33 32 33 32 33 33 32 32 30 29 27 24 22 19 16 14 13 11 9 8 6 4 2 1 4 6 8 10 12 14 15 17
4 6 3 1 2 6 6 11 8 6 11 9 14 26 31 34 34 34 35 35 34 33 32 33 32 31 29 26 24 21 18 16 15 14 12 11 10 7 5 4 2 3 5 8 10 12 14 15 16
4 4 5 4 4 4 4 7 3 15 16 19 18 28 33 37 38 37 36 35 34 34 35 35 34 33 30 27 25 22 19 17 15 15 14 13 11 9 7 6 4 4 5 7 9 11 13 15 17
3 8 10 5 6 7 2 19 2 4 12 21 25 28 32 36 37 38 39 39 38 39 39 38 37 34 31 28 26 22 19 18 17 17 16 14 13 11 10 8 6 6 6 8 10 12 14 16 18
Wind_Direction
282 31 353 334 319 127 120 60 119 122 86 67 56 83 78 52 35 103 132 69 126 184 160 164 159 151 148 145 136 123 106 96 84 76 69 66 66 65 54 31 41 36 36 30 30 35 44 48 51
126 104 355 283 256 120 84 129 83 75 96 112 88 118 85 63 75 102 71 37 131 172 171 169 163 158 156 154 149 141 130 116 97 85 77 71 68 74 47 45 39 13 17 23 27 30 29 31 32
105 72 301 253 338 43 118 104 101 105 113 117 105 35 44 18 55 74 91 69 107 155 172 163 169 159 164 165 160 153 133 116 87 73 66 68 65 60 44 52 16 15 26 22 26 28 21 20 21
59 305 271 291 87 7 109 98 115 117 107 69 55 89 80 40 94 113 110 92 132 137 177 198 189 170 168 169 173 175 170 158 116 89 71 60 70 67 65 54 9 20 19 21 22 27 20 16 17
0 285 268 9 62 81 51 92 122 105 98 122 329 86 88 76 115 110 103 115 136 147 192 199 195 192 188 193 194 203 201 191 156 62 40 56 54 49 66 30 11 16 21 21 28 28 25 22 23
290 256 290 171 120 100 108 124 143 109 104 121 110 104 102 151 146 127 129 125 149 166 177 197 199 204 199 204 212 217 226 225 243 3 16 37 40 48 34 6 9 11 5 8 18 26 26 25 27
281 326 284 343 124 142 126 141 193 137 151 65 28 70 137 172 155 158 160 148 159 162 176 176 192 211 219 218 212 210 217 235 257 261 287 325 286 297 329 344 353 354 350 351 4 10 17 23 27
314 317 314 279 137 172 119 162 79 18 69 98 61 88 151 178 168 173 181 182 173 182 199 209 210 211 218 219 226 222 222 230 230 246 259 284 291 282 283 306 351 352 353 350 358 10 15 19 23
323 304 248 219 249 122 135 160 148 150 123 114 95 123 154 168 164 173 178 213 212 208 209 213 216 222 222 218 221 227 227 228 239 250 265 278 282 277 267 311 19 20 1 359 1 3 2 12 12
276 301 0 5 44 90 153 218 150 173 166 147 132 130 136 154 153 166 163 214 232 233 236 234 233 231 229 223 226 225 227 228 244 257 262 266 251 230 256 281 338 339 338 345 350 356 356 359 5
15 302 4 42 48 12 126 261 121 227 219 79 188 172 150 147 154 173 195 219 242 250 250 244 245 241 235 232 222 219 219 214 208 236 246 241 234 225 254 286 311 306 309 325 336 341 341 347 354
297 78 13 63 83 44 116 55 188 235 127 143 129 169 150 167 176 183 202 220 227 243 262 265 251 239 238 232 230 197 184 194 207 216 229 212 207 231 253 279 286 295 293 299 316 331 330 324 338
234 119 81 139 184 199 307 256 251 284 204 207 175 169 175 183 189 195 211 225 233 239 243 242 237 228 205 185 196 186 191 196 206 205 210 219 224 223 231 270 290 286 272 282 295 317 324 328 328
9 352 252 188 224 241 237 265 244 242 216 199 175 180 191 194 195 211 221 243 250 255 257 245 230 220 214 201 204 197 185 193 205 209 222 230 236 255 285 300 298 283 290 261 304 308 311 305 310
320 293 231 225 212 278 196 276 235 207 189 189 179 192 198 196 207 227 233 241 245 251 247 234 214 212 208 200 196 180 180 192 191 200 217 226 238 232 242 261 275 284 285 281 300 304 296 312 317
240 201 252 356 157 166 170 274 2 191 182 187 191 201 204 203 219 231 243 247 240 232 223 215 210 191 189 185 177 173 174 178 181 199 188 173 167 162 216 265 258 265 283 273 309 318 309 307 305
195 255 216 159 181 130 191 275 146 179 189 193 194 197 209 213 217 226 228 225 220 219 217 195 168 150 155 158 160 163 170 173 175 178 194 165 159 161 167 181 196 188 151 358 287 288 287 300 313
216 219 247 245 196 192 198 258 211 198 196 201 195 202 211 221 224 226 220 214 216 211 198 169 152 145 148 155 164 168 170 175 181 189 166 158 154 154 154 203 216 215 291 285 273 276 315 330 337
294 312 295 303 138 185 226 244 249 197 205 213 204 200 208 210 225 220 214 206 209 199 173 156 148 147 153 163 169 168 169 171 179 164 158 165 170 159 161 165 146 113 97 69 43 23 15 10 12
236 254 264 284 129 166 274 266 258 232 209 210 212 208 199 198 218 215 209 202 200 194 167 157 154 156 161 167 171 173 172 171 170 164 156 146 146 139 135 122 104 86 64 60 48 29 16 10 7
241 235 254 245 154 220 301 276 252 245 236 212 217 215 202 205 210 210 206 197 193 187 171 165 166 169 170 173 179 183 178 172 167 155 150 142 135 126 116 97 79 66 48 33 27 21 12 15 13
247 236 227 256 320 245 140 281 278 286 240 220 206 200 182 188 202 209 200 196 190 188 177 174 176 176 182 184 182 184 183 174 160 152 149 143 136 123 104 80 61 41 25 17 12 9 5 5 17
208 54 29 245 249 302 260 269 256 226 248 218 176 191 186 189 195 200 198 195 193 189 187 183 184 181 181 180 185 187 180 169 157 153 153 147 138 126 107 77 42 29 24 18 16 14 11 10 8
127 90 101 62 188 256 223 221 208 241 231 207 184 189 186 183 191 198 194 195 189 187 188 187 184 182 182 183 182 180 176 169 168 167 163 154 147 139 122 86 36 23 18 15 12 9 6 7 6
173 140 250 293 204 238 321 217 242 266 287 220 175 175 182 186 188 192 195 191 188 186 186 185 183 181 181 180 176 175 178 181 182 182 177 172 171 160 127 74 28 16 9 5 1 359 357 356 353
194 180 168 226 211 262 343 234 251 14 95 117 170 174 177 182 189 196 193 190 189 188 186 184 182 182 180 178 178 182 187 190 195 195 192 189 188 187 181 164 19 7 4 353 352 350 347 346 340
175 218 245 7 47 358 216 260 274 154 144 177 156 166 176 183 189 196 191 193 192 190 189 187 185 184 183 184 187 190 195 200 205 201 200 200 202 211 215 235 349 348 349 343 338 338 337 336 333
176 152 91 207 237 251 244 241 237 219 214 185 184 177 180 189 194 197 196 196 195 193 190 188 187 188 189 191 195 199 203 208 206 205 209 212 215 222 228 243 281 315 324 334 337 338 338 332 327
131 207 213 167 190 227 276 256 231 196 192 192 196 187 186 191 196 197 199 201 199 197 196 193 193 194 195 197 202 207 211 210 211 213 215 220 224 225 233 243 260 293 314 325 329 332 334 332 331
207 178 185 174 222 234 175 258 278 20 181 182 188 190 193 201 198 198 201 202 202 203 201 201 200 201 202 205 208 210 214 216 217 220 220 223 227 230 234 239 253 274 293 309 323 331 333 334 331